Location: Keppel Henge
(44.7900°N, 80.9447°W)
Time: 09:54:10
(UTC-04:00)

STRAND 1 - Visible Passes

Search period start: 24 May 2018 00:00
Search period end: 03 June 2018 00:00
Orbit: 768 x 782 km, 98.5° (Epoch: 24 May)

Date Brightness Start Highest point End Pass type
(mag) Time Alt. Az. Time Alt. Az. Time Alt. Az.
24 May ? 22:58:14 10° NNW 23:00:10 12° NW 23:02:06 10° WNW visible
25 May ? 22:22:47 10° NNW 22:26:42 23° WNW 22:30:38 10° WSW visible
26 May ? 21:48:15 10° N 21:53:04 42° WNW 21:57:53 10° SW visible
27 May ? 22:55:26 10° NNW 22:57:38 13° NW 22:59:49 10° W visible
28 May ? 22:20:07 10° N 22:24:09 24° WNW 22:28:10 10° WSW visible
29 May ? 21:45:37 10° N 21:50:30 44° WNW 21:55:22 10° SW visible
30 May ? 22:52:40 10° NNW 22:55:05 13° WNW 22:57:29 10° W visible
31 May ? 22:17:29 10° N 22:21:36 25° WNW 22:25:42 10° WSW visible
01 Jun ? 21:43:00 10° N 21:47:56 46° WNW 21:52:50 10° SW visible
02 Jun ? 22:49:56 10° NNW 22:52:32 14° WNW 22:55:09 10° W visible
